Joplin, MO

9:16 PM CST on November 11, 2019 (GMT -0600)
Joplin Regional

Weather History for KJLN - September, 2019

Change the Weather History Date:

Sunday, September 15, 2019

  Actual Average Record
Temperature  
Mean Temperature 81 °F 71 °F  
Max Temperature 90 °F 83 °F 98 °F (1956)
Min Temperature 72 °F 60 °F 41 °F (1961)
Degree Days  
Heating Degree Days 0 1  
Month to date heating degree days 0 4  
Since 1 July heating degree days 0 5  
Cooling Degree Days 16 7  
Month to date cooling degree days 220 140  
Year to date cooling degree days 1471 1567  
Growing Degree Days 31 (Base 50)    
Moisture  
Dew Point 69 °F    
Average Humidity 69    
Maximum Humidity 90    
Minimum Humidity 52    
Precipitation  
Precipitation 0.00 in 0.17 in 2.30 in (2012)
Month to date precipitation 0.72 2.46  
Year to date precipitation 49.61 33.43  
Sea Level Pressure  
Sea Level Pressure 30.07 in    
Wind  
Wind Speed 8 mph ()    
Max Wind Speed 16 mph    
Max Gust Speed 23 mph    
Visibility 9.8 miles    
Events      
T = Trace of Precipitation, MM = Missing Value Source: Averaged Metar Reports

Daily Weather History Graph

Daily Weather History Graph

Search for Another Location

Airport or City:

Astronomy

Sep. 15, 2019 Rise Set
Actual Time 6:59 AM CDT 7:25 PM CDT
Civil Twilight 6:33 AM CDT 7:51 PM CDT
Nautical Twilight 6:03 AM CDT 8:22 PM CDT
Astronomical Twilight 5:31 AM CDT 8:53 PM CDT
Moon 8:35 PM CDT (9/15) 8:10 AM CDT (9/15)
Length of Visible Light 13h 18m
Length of Day
12h 25m
Full, 98% of the Moon is Illuminated
Sep 15
Full
Sep 21
Last Quarter
Sep 28
New
Oct 5
First Quarter
Oct 13
Full

Hourly Weather History & Observations

Time (CDT) Temp. Heat Index Dew Point Humidity Pressure Visibility Wind Dir Wind Speed Gust Speed Precip Events Conditions
12:53 AM 73.9 °F - 68.0 °F 82% 30.10 in 10.0 mi South 6.9 mph - N/A   Clear
1:53 AM 73.9 °F - 66.9 °F 79% 30.10 in 10.0 mi South 9.2 mph - N/A   Clear
2:53 AM 73.9 °F - 66.0 °F 76% 30.09 in 10.0 mi South 9.2 mph - N/A   Clear
3:53 AM 73.9 °F - 66.0 °F 76% 30.08 in 10.0 mi South 11.5 mph - N/A   Clear
4:53 AM 73.9 °F - 64.9 °F 73% 30.07 in 10.0 mi South 11.5 mph - N/A   Clear
5:53 AM 73.0 °F - 64.9 °F 76% 30.08 in 10.0 mi South 9.2 mph - N/A   Clear
6:53 AM 73.0 °F - 64.9 °F 76% 30.09 in 10.0 mi South 10.4 mph - N/A   Clear
8:53 AM 78.1 °F - 66.9 °F 68% 30.10 in 10.0 mi South 11.5 mph - N/A   Clear
9:53 AM 82.0 °F 84.9 °F 68.0 °F 62% 30.11 in 10.0 mi SSW 12.7 mph - N/A   Clear
10:53 AM 84.9 °F 89.4 °F 70.0 °F 61% 30.11 in 10.0 mi SSW 13.8 mph - N/A   Clear
11:53 AM 86.0 °F 90.7 °F 70.0 °F 59% 30.11 in 10.0 mi SSW 12.7 mph - N/A   Clear
12:53 PM 88.0 °F 92.9 °F 70.0 °F 55% 30.10 in 10.0 mi SW 13.8 mph 20.7 mph N/A   Clear
1:53 PM 89.1 °F 95.0 °F 71.1 °F 55% 30.08 in 10.0 mi SSW 10.4 mph - N/A   Clear
2:53 PM 90.0 °F 96.4 °F 71.1 °F 54% 30.06 in 10.0 mi SSW 9.2 mph - N/A   Clear
3:53 PM 90.0 °F 95.4 °F 70.0 °F 52% 30.04 in 10.0 mi SW 9.2 mph - N/A   Clear
4:53 PM 90.0 °F 95.4 °F 70.0 °F 52% 30.03 in 10.0 mi SSW 9.2 mph - N/A   Clear
5:53 PM 88.0 °F 92.9 °F 70.0 °F 55% 30.02 in 10.0 mi SSW 8.1 mph - N/A   Clear
6:53 PM 84.0 °F 89.0 °F 71.1 °F 65% 30.02 in 10.0 mi South 4.6 mph - N/A   Clear
7:53 PM 80.1 °F 83.2 °F 70.0 °F 71% 30.02 in 9.0 mi Calm Calm - N/A   Clear
9:53 PM 75.9 °F - 71.1 °F 85% 30.05 in 9.0 mi SSE 3.5 mph - N/A   Clear
10:53 PM 75.0 °F - 71.1 °F 87% 30.05 in 8.0 mi SSE 4.6 mph - N/A   Clear
11:53 PM 73.0 °F - 70.0 °F 90% 30.05 in 9.0 mi SSE 4.6 mph - N/A   Clear